Regional Weather Roundup
Issued by NWS

Home | Current Version | Previous Version | Graphics & Text | Print | Product List | Glossary Off
Versions: 1 2 3 4 5 6 7 8 9 10 11 12 13 14 15 16 17 18 19 20 21 22 23 24 25 26 27 28 29 30 31 32 33 34 35 36 37 38 39 40 41 42 43 44 45 46 47 48 49 50

000
ASUS43 KMKX 280821
RWRWI

WISCONSIN REGIONAL WEATHER ROUNDUP
NATIONAL WEATHER SERVICE MILWAUKEE/SULLIVAN WI
300 AM CDT FRI JUL 28 2017

NOTE: "FAIR" INDICATES FEW OR NO CLOUDS BELOW 12,000 FEET WITH NO
SIGNIFICANT WEATHER AND/OR OBSTRUCTIONS TO VISIBILITY.

WIZ001-002-006>008-014>016-023>028-280900-
NORTHWEST WISCONSIN

CITY           SKY/WX    TMP DP  RH WIND       PRES   REMARKS
SUPERIOR ARPT  NOT AVBL
ASHLAND        FOG       53  53 100 SW5       30.11R VSB 1/2
HAYWARD        CLEAR     55  52  89 CALM      30.11R
SIREN          FOG       56  55  97 CALM      30.10R VSB 1
CUMBERLAND     CLEAR     59  55  88 NE5       30.10R
RICE LAKE      CLEAR     59  57  92 CALM      30.10R
CHETEK         CLEAR     64  59  83 NE5       30.09R
LADYSMITH      CLEAR     61  57  86 CALM      30.11R
EAU CLAIRE     CLEAR     63  60  90 NE7       30.05R
MENOMONIE      CLEAR     64  59  86 N5        30.06S
NEW RICHMOND   CLEAR     60  59  95 CALM      30.07F
OSCEOLA        CLEAR     61  61 100 CALM      30.10S
$$

WIZ003>005-009-010-017-018-280900-
NORTH CENTRAL WISCONSIN

CITY           SKY/WX    TMP DP  RH WIND       PRES   REMARKS
MANITOWISH WTR FOG       51  51 100 CALM      30.11R VSB 1/2
ARBOR VITAE    CLEAR     53  51  95 CALM      30.11R
WOODRUFF       CLEAR     53  51  95 CALM      30.11R
RHINELANDER    CLEAR     51  51 100 CALM      30.11R
EAGLE RIVER    FOG       47  47 100 CALM      30.11S VSB 3/4
LAND O LAKES   FOG       47  47 100 CALM      30.13R VSB 3/4
PHILLIPS       CLEAR     55  55 100 CALM      30.11R
TOMAHAWK         N/A     50  49  97 CALM      30.11S
MEDFORD        CLEAR     56  56  97 NE3       30.09R
MERRILL        CLEAR     55  55 100 CALM      30.10R
$$

WIZ029-030-035-036-043>047-280900-
CENTRAL WISCONSIN

CITY           SKY/WX    TMP DP  RH WIND       PRES   REMARKS
WAUSAU         CLEAR     60  59  96 CALM      30.07R
MOSINEE        PTCLDY    59  59 100 N5        30.10R
MARSHFIELD     PTCLDY    61  58  90 NE5       30.07R
STEVENS POINT  CLEAR     58  58  99 CALM      30.07S
WAUPACA        PTCLDY    63  61  94 CALM      30.06R
WAUTOMA        CLOUDY    63  58  83 N6        30.05S
WISC RAPIDS    PTCLDY    63  56  78 E3        30.07S
CAMP DOUGLAS   PTCLDY    63  63 100 CALM      30.05S FOG
$$

WIZ011>013-019>022-031-037>040-048>050-280900-
NORTHEAST WISCONSIN

CITY           SKY/WX    TMP DP  RH WIND       PRES   REMARKS
ANTIGO         CLEAR     52  52  99 N3        30.10S
SHAWANO        CLEAR     61  54  78 CALM      30.07S
OCONTO         CLEAR     52  51  94 CALM      30.05S
STURGEON BAY     N/A     60  56  86 N6        30.05S
GREEN BAY      CLEAR     59  56  89 N7        30.05S
MANITOWOC      CLEAR     60  55  83 N7        30.04R
APPLETON       CLOUDY    61  50  67 N8        30.04R
CLINTONVILLE   CLEAR    N/A N/A N/A NE3       30.06S
OSHKOSH        CLOUDY    68  57  68 NE9       30.03S
$$

WIZ032>034-041-042-053>061-280900-
SOUTHWEST WISCONSIN

CITY           SKY/WX    TMP DP  RH WIND       PRES   REMARKS
LA CROSSE      CLEAR     68  65  90 CALM      30.03R
SPARTA         PTCLDY    58  58  99 CALM      30.06R
VIROQUA        CLEAR     64  63  95 E3        30.05R
BOSCOBEL       PTCLDY    61  60  97 CALM      30.03R FOG
PRAIRIE DU CHI PTCLDY    64  63  94 CALM      30.01S
PLATTEVILLE    CLEAR     65  61  87 NE6       30.03R
$$

WIZ056-057-062-063-064-067-068-280900-
SOUTH CENTRAL WISCONSIN

CITY           SKY/WX    TMP DP  RH WIND       PRES   REMARKS
REEDSBURG      CLOUDY    64  64 100 CALM      30.05R
BARABOO/DELLS  CLOUDY    64  59  86 NE5       30.05R
LONE ROCK      MOCLDY    62  62 100 CALM      30.03R FOG
MINERAL POINT  CLEAR     64  59  82 E3        30.03S
MADISON        CLEAR     61  57  87 N5        30.02S
MIDDLETON      CLEAR     61  60  95 CALM      30.03S
WATERTOWN      PTCLDY    60  57  89 N3        30.01F
MONROE         CLEAR     61  54  77 N7        30.01S
JANESVILLE     CLEAR     64  55  72 N5        29.99S
$$

WIZ051-052-058>065-066-070>072-280900-
SOUTHEAST WISCONSIN

CITY           SKY/WX    TMP DP  RH WIND       PRES   REMARKS
MILWAUKEE      PTCLDY    68  63  84 NE9       29.99S
WAUKESHA       CLEAR     59  55  88 N6        30.01F
MILWAUKEE/TIMM CLEAR     61  55  82 N5        30.01S
RACINE         CLEAR     67  64  90 N12       30.00S
KENOSHA        CLEAR     67  61  81 N8        29.98S
FOND DU LAC    LGT RAIN  67  54  63 NE9       30.04R
SHEBOYGAN      CLOUDY    63  60  90 N6        30.03R
WEST BEND      PTCLDY    59  57  94 N3        30.02S
JUNEAU         MOCLDY    61  55  81 N3        30.04R
$$

LSZ147-162-280900-
LAKE SUPERIOR

STATION/POSITION TIME  TEMP    WIND        PRES    WAVE
                       AIR SEA DIR/SP/G            HT/PER
                 (UTC) (F)     (DEG/KT/KT) (MB)    (FT/S)
W MID LAKE BUOY  0750   58 54  340/  2/  4 1019.1R   0
DEVILS ISLAND    0800   62      30/  4/  5 1019.3R
SAXON HARBOR     0740   58     200/  5/  5 1018.6S
$$

LMZ867-665-643>646-280900-
LAKE MICHIGAN

STATION/POSITION TIME  TEMP    WIND        PRES    WAVE
                       AIR SEA DIR/SP/G            HT/PER
                 (UTC) (F)     (DEG/KT/KT) (MB)    (FT/S)
CHAMBERS ISLAND  0740   64     340/ 13/ 15 1016.6S
S GREEN BAY BUOY 0800   66 71   20/ 14/ 16 1017.3
N MID LAKE BUOY  0750   63 66   10/ 12/ 16 1017.1S   2/ 4
NORTHPORT PIER   0740   64     350/  8/ 10 1017.3S
KEWAUNEE LAKESHO 0754   61     350/  7/  9 1016.2R
SHEBOYGAN LAKESH 0800   67      20/ 19/ 20 1016.1R
PORT WASHINGTON  0740   66     340/  3/  6 1016.6F
ATWATER BUOY     0709   69 69   20/ 16/ 21 1015.6F
MILWAUKEE LAKESH 0750   68      10/ 11/ 16   N/A
S MID LAKE BUOY  0750   71 72   40/ 12/ 14 1014.3R   3/ 6
KENOSHA   LAKESH 0800   69      10/ 18/ 20 1014.6
$$

TC  - TEMPERATURE IN CELSIUS
VSB - VISIBILITY IN STATUTE MILES
WCI - WIND CHILL INDEX
HX  - HEAT INDEX




USA.gov is the U.S. government's official web portal to all federal, state and local government web resources and services.